ETD6EQ OMAA-OBBI

Flight info

Callsign ETD6EQ
Flight time 0h 52m
Altitude 26000
Route BOSEV N563 IMGUX P699 ORMID M556 ORDIG
Aircraft A320/M-SDE3FGHIRWY/LB1

Departure

Time 2026-05-06 05:57
Airport Zayed International Airport (OMAA)

Arrival

Time 2026-05-06 06:50
Airport Bahrain International Airport (OBBI)
Time Latitude Longitude Altitude Speed Heading
2026-05-06 05:40 24.44397 54.64421 92 ft 0 kts 47°
2026-05-06 05:49 24.44389 54.64411 95 ft 6 kts 47°
2026-05-06 05:49 24.44362 54.64379 92 ft 6 kts 48°
2026-05-06 05:50 24.44344 54.64357 92 ft 2 kts 83°
2026-05-06 05:50 24.44346 54.64346 91 ft 2 kts 148°
2026-05-06 05:50 24.44352 54.64337 92 ft 2 kts 127°
2026-05-06 05:50 24.44355 54.64332 94 ft 0 kts 138°
2026-05-06 05:52 24.44355 54.64333 92 ft 0 kts 138°
2026-05-06 05:52 24.44342 54.64352 93 ft 6 kts 126°
2026-05-06 05:53 24.44310 54.64399 92 ft 9 kts 128°
2026-05-06 05:53 24.44250 54.64407 92 ft 10 kts 214°
2026-05-06 05:53 24.44199 54.64343 92 ft 13 kts 265°
2026-05-06 05:53 24.44251 54.64254 92 ft 16 kts 308°
2026-05-06 05:54 24.44322 54.64154 92 ft 17 kts 308°
2026-05-06 05:54 24.44400 54.64044 92 ft 19 kts 308°
2026-05-06 05:54 24.44475 54.63939 92 ft 15 kts 308°
2026-05-06 05:54 24.44542 54.63843 94 ft 17 kts 308°
2026-05-06 05:55 24.44614 54.63743 91 ft 13 kts 308°
2026-05-06 05:55 24.44587 54.63664 91 ft 14 kts 215°
2026-05-06 05:55 24.44540 54.63627 91 ft 9 kts 217°
2026-05-06 05:55 24.44483 54.63578 92 ft 12 kts 218°
2026-05-06 05:56 24.44423 54.63552 92 ft 9 kts 154°
2026-05-06 05:56 24.44398 54.63582 90 ft 0 kts 128°
2026-05-06 05:56 24.44394 54.63587 90 ft 4 kts 128°
2026-05-06 05:56 24.44256 54.63780 91 ft 65 kts 128°
2026-05-06 05:57 24.43857 54.64343 94 ft 120 kts 128°
2026-05-06 05:57 24.43252 54.65196 95 ft 162 kts 128°
2026-05-06 05:57 24.42502 54.66216 426 ft 173 kts 131°
2026-05-06 05:57 24.41754 54.67256 1037 ft 174 kts 130°
2026-05-06 05:58 24.41017 54.68299 1647 ft 174 kts 130°
2026-05-06 05:58 24.40249 54.69387 1903 ft 189 kts 128°
2026-05-06 05:58 24.39396 54.70593 2011 ft 212 kts 128°
2026-05-06 05:58 24.38450 54.71933 2341 ft 230 kts 127°
2026-05-06 05:59 24.37450 54.73350 2833 ft 238 kts 126°
2026-05-06 05:59 24.36424 54.74802 3409 ft 244 kts 126°
2026-05-06 05:59 24.35379 54.76278 4061 ft 246 kts 125°
2026-05-06 05:59 24.34319 54.77767 4726 ft 249 kts 125°
2026-05-06 06:00 24.33245 54.79273 5356 ft 252 kts 126°
2026-05-06 06:00 24.32156 54.80795 6002 ft 255 kts 126°
2026-05-06 06:00 24.31054 54.82337 6594 ft 260 kts 127°
2026-05-06 06:00 24.29685 54.83634 6790 ft 264 kts 154°
2026-05-06 06:01 24.27890 54.83981 6833 ft 266 kts 186°
2026-05-06 06:01 24.26181 54.83241 6841 ft 268 kts 216°
2026-05-06 06:01 24.24699 54.81990 6832 ft 269 kts 217°
2026-05-06 06:01 24.23223 54.80724 6840 ft 270 kts 217°
2026-05-06 06:02 24.21832 54.79349 6834 ft 271 kts 234°
2026-05-06 06:02 24.21140 54.77458 6841 ft 270 kts 266°
2026-05-06 06:02 24.21427 54.75392 6849 ft 284 kts 297°
2026-05-06 06:02 24.22568 54.73613 6839 ft 288 kts 310°
2026-05-06 06:03 24.23419 54.72454 6838 ft 290 kts 310°
2026-05-06 06:03 24.24667 54.70720 6834 ft 290 kts 309°
2026-05-06 06:03 24.25908 54.68980 6838 ft 290 kts 309°
2026-05-06 06:03 24.27147 54.67236 6836 ft 290 kts 309°
2026-05-06 06:04 24.28384 54.65490 6834 ft 290 kts 309°
2026-05-06 06:04 24.29620 54.63749 6838 ft 289 kts 309°
2026-05-06 06:04 24.30855 54.62011 6838 ft 289 kts 310°
2026-05-06 06:04 24.32090 54.60274 6834 ft 289 kts 310°
2026-05-06 06:05 24.33326 54.58534 6838 ft 289 kts 310°
2026-05-06 06:05 24.34563 54.56793 6834 ft 289 kts 310°
2026-05-06 06:05 24.35797 54.55056 6837 ft 289 kts 310°
2026-05-06 06:05 24.37030 54.53321 6837 ft 288 kts 309°
2026-05-06 06:06 24.38061 54.51436 6837 ft 291 kts 294°
2026-05-06 06:06 24.38546 54.49283 6871 ft 295 kts 275°
2026-05-06 06:06 24.38396 54.47015 7492 ft 300 kts 260°
2026-05-06 06:06 24.38002 54.44765 8248 ft 301 kts 261°
2026-05-06 06:07 24.37613 54.42500 9021 ft 303 kts 261°
2026-05-06 06:07 24.37374 54.40206 9727 ft 304 kts 275°
2026-05-06 06:07 24.37824 54.37922 10066 ft 316 kts 296°
2026-05-06 06:07 24.39101 54.35893 10231 ft 333 kts 319°
2026-05-06 06:08 24.41077 54.34538 10607 ft 339 kts 341°
2026-05-06 06:08 24.43328 54.33725 11174 ft 343 kts 343°
2026-05-06 06:08 24.45610 54.32926 11786 ft 346 kts 343°
2026-05-06 06:08 24.47912 54.32119 12384 ft 349 kts 343°
2026-05-06 06:09 24.50236 54.31307 12993 ft 352 kts 343°
2026-05-06 06:09 24.52581 54.30487 13561 ft 355 kts 343°
2026-05-06 06:09 24.54945 54.29660 14065 ft 358 kts 343°
2026-05-06 06:09 24.57334 54.28825 14564 ft 362 kts 343°
2026-05-06 06:10 24.59743 54.27983 15070 ft 365 kts 343°
2026-05-06 06:10 24.62170 54.27132 15573 ft 368 kts 343°
2026-05-06 06:10 24.64617 54.26269 16071 ft 371 kts 343°
2026-05-06 06:10 24.67026 54.25217 16568 ft 375 kts 333°
2026-05-06 06:11 24.69227 54.23653 17067 ft 379 kts 321°
2026-05-06 06:11 24.71156 54.21660 17577 ft 383 kts 315°
2026-05-06 06:11 24.73053 54.19589 18082 ft 386 kts 315°
2026-05-06 06:11 24.74970 54.17505 18536 ft 389 kts 315°
2026-05-06 06:12 24.76901 54.15407 19010 ft 391 kts 315°
2026-05-06 06:12 24.78842 54.13298 19514 ft 393 kts 315°
2026-05-06 06:12 24.80794 54.11181 20033 ft 395 kts 315°
2026-05-06 06:12 24.82747 54.09049 20539 ft 396 kts 313°
2026-05-06 06:13 24.84468 54.06674 21020 ft 398 kts 302°
2026-05-06 06:13 24.85924 54.04076 21507 ft 400 kts 301°
2026-05-06 06:13 24.87384 54.01458 21989 ft 402 kts 301°
2026-05-06 06:13 24.88857 53.98825 22465 ft 405 kts 301°
2026-05-06 06:14 24.90340 53.96182 22940 ft 407 kts 301°
2026-05-06 06:14 24.91830 53.93527 23403 ft 409 kts 301°
2026-05-06 06:14 24.93327 53.90859 23783 ft 410 kts 300°
2026-05-06 06:14 24.94829 53.88182 24162 ft 412 kts 300°
2026-05-06 06:15 24.96336 53.85494 24545 ft 413 kts 300°
2026-05-06 06:15 24.97841 53.82800 24926 ft 414 kts 300°
2026-05-06 06:15 24.99353 53.80087 25285 ft 415 kts 300°
2026-05-06 06:15 25.00868 53.77376 25657 ft 417 kts 301°
2026-05-06 06:16 25.02631 53.74827 25811 ft 419 kts 311°
2026-05-06 06:16 25.04688 53.72592 25848 ft 411 kts 313°
2026-05-06 06:16 25.06738 53.70413 25849 ft 408 kts 313°
2026-05-06 06:16 25.08775 53.68242 25855 ft 407 kts 313°
2026-05-06 06:17 25.10805 53.66070 25856 ft 406 kts 313°
2026-05-06 06:17 25.12831 53.63896 25854 ft 406 kts 313°
2026-05-06 06:17 25.14852 53.61720 25852 ft 406 kts 313°
2026-05-06 06:17 25.16872 53.59545 25856 ft 406 kts 313°
2026-05-06 06:18 25.18893 53.57369 25857 ft 406 kts 313°
2026-05-06 06:18 25.20913 53.55194 25855 ft 406 kts 313°
2026-05-06 06:18 25.22933 53.53020 25855 ft 406 kts 313°
2026-05-06 06:18 25.24953 53.50843 25859 ft 406 kts 313°
2026-05-06 06:19 25.26972 53.48668 25861 ft 406 kts 313°
2026-05-06 06:19 25.28991 53.46494 25866 ft 406 kts 313°
2026-05-06 06:19 25.31014 53.44318 25866 ft 405 kts 313°
2026-05-06 06:19 25.33034 53.42142 25869 ft 405 kts 313°
2026-05-06 06:20 25.35050 53.39967 25874 ft 405 kts 313°
2026-05-06 06:20 25.37066 53.37790 25874 ft 405 kts 313°
2026-05-06 06:20 25.39081 53.35615 25875 ft 405 kts 313°
2026-05-06 06:20 25.41097 53.33437 25878 ft 405 kts 313°
2026-05-06 06:21 25.43109 53.31262 25880 ft 405 kts 313°
2026-05-06 06:21 25.45123 53.29085 25882 ft 405 kts 313°
2026-05-06 06:21 25.47121 53.26898 25881 ft 403 kts 309°
2026-05-06 06:21 25.48813 53.24449 25882 ft 399 kts 298°
2026-05-06 06:22 25.50047 53.21717 25880 ft 396 kts 289°
2026-05-06 06:22 25.50812 53.18803 25881 ft 394 kts 281°
2026-05-06 06:22 25.51415 53.15845 25883 ft 394 kts 281°
2026-05-06 06:22 25.52027 53.12848 25884 ft 394 kts 281°
2026-05-06 06:23 25.52625 53.09931 25885 ft 394 kts 281°
2026-05-06 06:23 25.53239 53.06937 25885 ft 394 kts 281°
2026-05-06 06:23 25.53845 53.03981 25885 ft 394 kts 281°
2026-05-06 06:23 25.54450 53.01027 25887 ft 393 kts 281°
2026-05-06 06:24 25.55054 52.98074 25889 ft 393 kts 281°
2026-05-06 06:24 25.55660 52.95120 25891 ft 393 kts 281°
2026-05-06 06:24 25.56289 52.92173 25890 ft 394 kts 285°
2026-05-06 06:24 25.57287 52.89348 25896 ft 396 kts 295°
2026-05-06 06:25 25.58593 52.86660 25895 ft 396 kts 296°
2026-05-06 06:25 25.59906 52.83979 25894 ft 396 kts 296°
2026-05-06 06:25 25.62524 52.78610 25893 ft 396 kts 296°
2026-05-06 06:26 25.63832 52.75927 25892 ft 396 kts 296°
2026-05-06 06:26 25.65141 52.73240 25895 ft 396 kts 296°
2026-05-06 06:26 25.66446 52.70555 25895 ft 396 kts 296°
2026-05-06 06:26 25.67753 52.67869 25894 ft 396 kts 296°
2026-05-06 06:27 25.69058 52.65184 25895 ft 396 kts 296°
2026-05-06 06:27 25.70364 52.62499 25896 ft 396 kts 296°
2026-05-06 06:27 25.71669 52.59812 25891 ft 396 kts 296°
2026-05-06 06:27 25.72973 52.57126 25890 ft 396 kts 296°
2026-05-06 06:28 25.74276 52.54441 25891 ft 396 kts 296°
2026-05-06 06:28 25.75578 52.51754 25892 ft 395 kts 296°
2026-05-06 06:28 25.76871 52.49063 25895 ft 395 kts 295°
2026-05-06 06:28 25.78143 52.46359 25895 ft 395 kts 295°
2026-05-06 06:29 25.79402 52.43650 25894 ft 395 kts 295°
2026-05-06 06:29 25.80652 52.40938 25892 ft 395 kts 294°
2026-05-06 06:29 25.81902 52.38223 25892 ft 395 kts 295°
2026-05-06 06:29 25.83153 52.35511 25894 ft 395 kts 295°
2026-05-06 06:30 25.84405 52.32800 25893 ft 395 kts 295°
2026-05-06 06:30 25.85661 52.30087 25894 ft 395 kts 295°
2026-05-06 06:30 25.87004 52.27430 25891 ft 397 kts 301°
2026-05-06 06:30 25.88746 52.25042 25892 ft 400 kts 310°
2026-05-06 06:31 25.90639 52.22778 25895 ft 400 kts 309°
2026-05-06 06:31 25.92524 52.20510 25895 ft 400 kts 309°
2026-05-06 06:31 25.94406 52.18239 25896 ft 400 kts 309°
2026-05-06 06:31 25.96286 52.15966 25897 ft 400 kts 309°
2026-05-06 06:32 25.98166 52.13690 25899 ft 400 kts 309°
2026-05-06 06:32 26.00044 52.11415 25897 ft 400 kts 309°
2026-05-06 06:32 26.01921 52.09136 25897 ft 399 kts 309°
2026-05-06 06:32 26.03797 52.06860 25898 ft 399 kts 309°
2026-05-06 06:33 26.05676 52.04584 25899 ft 399 kts 309°
2026-05-06 06:33 26.07553 52.02309 25896 ft 399 kts 309°
2026-05-06 06:33 26.09429 52.00033 25898 ft 399 kts 309°
2026-05-06 06:33 26.11306 51.97759 25896 ft 399 kts 309°
2026-05-06 06:34 26.13184 51.95485 25896 ft 399 kts 309°
2026-05-06 06:34 26.15061 51.93211 25896 ft 399 kts 309°
2026-05-06 06:34 26.16937 51.90939 25898 ft 399 kts 309°
2026-05-06 06:34 26.18812 51.88666 25896 ft 399 kts 309°
2026-05-06 06:35 26.20686 51.86391 25898 ft 398 kts 309°
2026-05-06 06:35 26.22557 51.84118 25898 ft 398 kts 309°
2026-05-06 06:35 26.24400 51.81817 25894 ft 396 kts 304°
2026-05-06 06:35 26.25906 51.79270 25896 ft 392 kts 295°
2026-05-06 06:36 26.27116 51.76557 25891 ft 391 kts 293°
2026-05-06 06:36 26.28322 51.73838 25889 ft 391 kts 293°
2026-05-06 06:36 26.29530 51.71121 25889 ft 391 kts 293°
2026-05-06 06:36 26.30740 51.68406 25888 ft 391 kts 293°
2026-05-06 06:37 26.31951 51.65689 25887 ft 391 kts 293°
2026-05-06 06:37 26.33156 51.62991 25709 ft 385 kts 293°
2026-05-06 06:37 26.34285 51.60321 25237 ft 377 kts 287°
2026-05-06 06:37 26.34795 51.57487 24331 ft 373 kts 270°
2026-05-06 06:38 26.34502 51.54627 23451 ft 373 kts 255°
2026-05-06 06:38 26.33854 51.51825 22416 ft 374 kts 255°
2026-05-06 06:38 26.33203 51.49021 21412 ft 374 kts 255°
2026-05-06 06:38 26.32552 51.46214 20443 ft 374 kts 255°
2026-05-06 06:39 26.31905 51.43412 19510 ft 373 kts 256°
2026-05-06 06:39 26.31265 51.40634 18734 ft 367 kts 256°
2026-05-06 06:39 26.30635 51.37891 17892 ft 364 kts 256°
2026-05-06 06:39 26.30011 51.35175 16982 ft 360 kts 256°
2026-05-06 06:40 26.29391 51.32487 16113 ft 356 kts 256°
2026-05-06 06:40 26.28985 51.30725 15564 ft 353 kts 256°
2026-05-06 06:40 26.28378 51.28090 14736 ft 349 kts 256°
2026-05-06 06:40 26.27775 51.25482 13947 ft 346 kts 256°
2026-05-06 06:41 26.27178 51.22904 13107 ft 342 kts 256°
2026-05-06 06:41 26.26586 51.20354 12268 ft 338 kts 256°
2026-05-06 06:41 26.26007 51.17864 11884 ft 321 kts 256°
2026-05-06 06:41 26.25464 51.15523 11568 ft 306 kts 256°
2026-05-06 06:42 26.24938 51.13262 11024 ft 300 kts 256°
2026-05-06 06:42 26.24396 51.11132 10335 ft 300 kts 246°
2026-05-06 06:42 26.23316 51.09192 9913 ft 291 kts 234°
2026-05-06 06:42 26.22108 51.07403 9371 ft 287 kts 233°
2026-05-06 06:43 26.20906 51.05646 8780 ft 284 kts 233°
2026-05-06 06:43 26.19716 51.03899 8200 ft 282 kts 233°
2026-05-06 06:43 26.18540 51.02166 7631 ft 280 kts 233°
2026-05-06 06:43 26.17360 51.00421 7065 ft 277 kts 233°
2026-05-06 06:44 26.16224 50.98733 6521 ft 275 kts 233°
2026-05-06 06:44 26.15083 50.97030 5963 ft 273 kts 233°
2026-05-06 06:44 26.13941 50.95313 5389 ft 272 kts 233°
2026-05-06 06:44 26.12915 50.93559 4832 ft 270 kts 246°
2026-05-06 06:45 26.12514 50.91530 4261 ft 271 kts 270°
2026-05-06 06:45 26.12920 50.89489 4047 ft 275 kts 293°
2026-05-06 06:45 26.13780 50.87629 3999 ft 264 kts 296°
2026-05-06 06:45 26.14618 50.85876 3949 ft 251 kts 296°
2026-05-06 06:46 26.15425 50.84196 3829 ft 241 kts 296°
2026-05-06 06:46 26.16149 50.82529 3522 ft 240 kts 294°
2026-05-06 06:46 26.16953 50.80892 3190 ft 241 kts 300°
2026-05-06 06:46 26.17850 50.79316 2886 ft 241 kts 302°
2026-05-06 06:47 26.18760 50.77754 2589 ft 240 kts 302°
2026-05-06 06:47 26.19657 50.76210 2284 ft 233 kts 302°
2026-05-06 06:47 26.20511 50.74735 1996 ft 218 kts 302°
2026-05-06 06:47 26.21305 50.73363 1733 ft 205 kts 302°
2026-05-06 06:48 26.22048 50.72079 1508 ft 187 kts 303°
2026-05-06 06:48 26.22721 50.70915 1248 ft 171 kts 303°
2026-05-06 06:48 26.23327 50.69866 1055 ft 154 kts 303°
2026-05-06 06:48 26.23887 50.68898 866 ft 145 kts 303°
2026-05-06 06:49 26.24429 50.67961 699 ft 144 kts 304°
2026-05-06 06:49 26.24969 50.67027 522 ft 143 kts 305°
2026-05-06 06:49 26.25507 50.66095 326 ft 143 kts 304°
2026-05-06 06:49 26.26047 50.65162 144 ft 143 kts 304°
2026-05-06 06:50 26.26583 50.64232 21 ft 136 kts 305°
2026-05-06 06:50 26.27013 50.63487 18 ft 90 kts 302°
2026-05-06 06:50 26.27214 50.63128 19 ft 28 kts 293°
2026-05-06 06:50 26.27254 50.62927 20 ft 27 kts 274°
2026-05-06 06:51 26.27263 50.62736 20 ft 19 kts 273°
2026-05-06 06:51 26.27219 50.62644 20 ft 15 kts 200°
2026-05-06 06:51 26.27140 50.62706 21 ft 16 kts 122°
2026-05-06 06:51 26.27074 50.62820 19 ft 19 kts 122°
2026-05-06 06:52 26.26999 50.62949 19 ft 21 kts 122°
2026-05-06 06:52 26.26916 50.63093 19 ft 23 kts 122°
2026-05-06 06:52 26.26848 50.63209 19 ft 7 kts 122°
2026-05-06 06:52 26.26808 50.63213 19 ft 7 kts 208°
2026-05-06 06:53 26.26773 50.63188 19 ft 4 kts 212°
2026-05-06 06:53 26.26762 50.63180 19 ft 2 kts 212°
2026-05-06 06:53 26.26761 50.63179 21 ft 0 kts 212°